Flag for U.S.A. Weather past 2 weeks in Bentonville, Arkansas, U.S.A.

Now
63 °F

Broken clouds.


Feels Like: 63 °F
Forecast: 51 / 71 °F
Wind: 6 mph from Northeast

Location: Bentonville Weather Observing Station

Current Time: Apr 19, 2015 at 4:05:50 PM

Latest Report: Apr 19, 2015 at 3:35 PM


Visibility: 10 mi

Pressure: 29.67 "Hg

Humidity: 68%

Dew point: 52 °F

Location of BentonvilleLocation

Historic Weather in Bentonville — Graph

°F

Bentonville temperature yesterday

Maximum temperature yesterday: 72 °F (at 5:35 PM)
Minimum temperature yesterday: 59 °F (at 11:15 PM)
Average temperature yesterday: 64 °F

Past Weeks' High & Low Weather Summary

 TemperatureHumidityPressure
High81 °F (Apr 7, 2:55 PM)94% (Apr 6, 6:55 AM)30.37 "Hg (Apr 6, 6:55 AM)
Low37 °F (Apr 10, 6:35 AM)17% (Apr 4, 4:55 PM)29.70 "Hg (Apr 19, 2:55 PM)
Average62 °F66%30.00 "Hg
* Reported Apr 4 2:15 PM — Apr 19 2:55 PM, Bentonville, Weather by CustomWeather, © 2015

Note: Actual official high and low records may vary slightly from our data, if they occured in-between our weather recording intervals... More about our weather records

Advertising

Bentonville weather history for previous 24 hours

 ConditionsComfort  
Time TempWeatherWind HumidityBarometerVisibility
2:55 PM
Sun, Apr 19
64 °FBroken clouds.13 mph64%29.70 "Hg10 mi
2:35 PM66 °FBroken clouds.12 mph60%29.71 "Hg10 mi
2:15 PM66 °FPartly sunny.12 mph60%29.71 "Hg10 mi
1:55 PM68 °FBroken clouds.12 mph60%29.72 "Hg10 mi
1:35 PM66 °FSunny.9 mph64%29.72 "Hg10 mi
1:15 PM66 °FPassing clouds.10 mph60%29.72 "Hg10 mi
12:55 PM66 °FPassing clouds.9 mph64%29.73 "Hg10 mi
12:35 PM64 °FSunny.13 mph64%29.74 "Hg10 mi
12:15 PM64 °FPassing clouds.13 mph68%29.75 "Hg10 mi
11:55 AM68 °FScattered clouds.16 mph56%29.75 "Hg10 mi
11:35 AM66 °FPassing clouds.10 mph64%29.74 "Hg10 mi
11:15 AM64 °FSunny.7 mph68%29.76 "Hg10 mi
10:55 AM63 °FScattered clouds.No wind68%29.75 "Hg10 mi
10:35 AM63 °FPassing clouds.No wind68%29.75 "Hg10 mi
10:15 AM61 °FSunny.6 mph72%29.75 "Hg10 mi
9:55 AM59 °FSunny.No wind77%29.74 "Hg10 mi
9:35 AM57 °FSunny.5 mph82%29.74 "Hg10 mi
9:15 AM57 °FSunny.5 mph77%29.73 "Hg10 mi
8:55 AM57 °FSunny.5 mph77%29.73 "Hg10 mi
8:35 AM57 °FSunny.3 mph77%29.72 "Hg10 mi
8:15 AM57 °FSunny.3 mph77%29.72 "Hg10 mi
7:55 AM55 °FSunny.No wind82%29.71 "Hg10 mi
7:35 AM55 °FClear.No wind77%29.72 "Hg10 mi
7:15 AM55 °FClear.No wind77%29.72 "Hg10 mi
6:55 AM55 °FClear.3 mph77%29.71 "Hg10 mi
6:35 AM55 °FPassing clouds.5 mph77%29.71 "Hg7 mi
6:15 AM55 °FOvercast.7 mph82%29.72 "Hg10 mi
5:55 AM55 °FPassing clouds.9 mph82%29.72 "Hg10 mi
5:35 AM55 °FClear.9 mph82%29.73 "Hg10 mi
5:15 AM55 °FClear.8 mph82%29.75 "Hg10 mi
4:55 AM55 °FClear.8 mph82%29.76 "Hg10 mi
4:35 AM57 °FClear.7 mph77%29.77 "Hg10 mi
4:15 AM57 °FPassing clouds.8 mph82%29.77 "Hg10 mi
3:55 AM57 °FPartly cloudy.13 mph82%29.78 "Hg10 mi
3:35 AMN/AMostly cloudy.17 mphN/A29.78 "Hg10 mi
3:15 AMN/AMostly cloudy.15 mphN/A29.77 "Hg10 mi
2:55 AM57 °FPartly cloudy.6 mph88%29.78 "Hg10 mi
2:35 AM59 °FMostly cloudy.No wind88%29.78 "Hg10 mi
2:15 AM57 °FPartly cloudy.3 mph88%29.80 "Hg7 mi
1:55 AM57 °FClear.No wind88%29.81 "Hg7 mi
1:35 AM57 °FClear.3 mph88%29.80 "Hg9 mi
1:15 AM57 °FClear.3 mph88%29.80 "Hg10 mi
12:55 AM57 °FClear.3 mph88%29.80 "Hg10 mi
12:35 AM61 °FClear.5 mph83%29.80 "Hg10 mi
12:15 AM61 °FClear.3 mph83%29.79 "Hg10 mi
11:55 PM
Sat, Apr 18
61 °FClear.7 mph83%29.79 "Hg10 mi
11:35 PM59 °FClear.7 mph88%29.81 "Hg10 mi
11:15 PM59 °FClear.5 mph82%29.82 "Hg10 mi
10:55 PM61 °FClear.3 mph77%29.83 "Hg10 mi
10:35 PM63 °FClear.5 mph77%29.82 "Hg10 mi
10:15 PM63 °FClear.7 mph77%29.83 "Hg10 mi
9:55 PM63 °FClear.7 mph77%29.83 "Hg10 mi
9:35 PM64 °FClear.7 mph73%29.83 "Hg10 mi
9:15 PM64 °FClear.8 mph73%29.82 "Hg10 mi
8:55 PM64 °FClear.6 mph73%29.82 "Hg10 mi
8:35 PM64 °FSunny.6 mph73%29.82 "Hg10 mi
7:55 PM66 °FSunny.6 mph68%29.83 "Hg10 mi
7:35 PM68 °FSunny.6 mph64%29.83 "Hg10 mi
7:15 PM70 °FSunny.10 mph64%29.83 "Hg10 mi
6:55 PM70 °FSunny.10 mph64%29.84 "Hg10 mi
6:35 PM72 °FSunny.10 mph61%29.84 "Hg10 mi
6:15 PM72 °FPassing clouds.8 mph61%29.84 "Hg10 mi
5:55 PM72 °FSunny.8 mph61%29.85 "Hg10 mi
5:35 PM72 °FPartly sunny.7 mph61%29.87 "Hg10 mi
5:15 PM70 °FOvercast.3 mph64%29.87 "Hg10 mi
4:55 PM70 °FPartly sunny.3 mph64%29.87 "Hg10 mi
4:35 PM70 °FPartly sunny.5 mph64%29.88 "Hg10 mi
4:15 PM70 °FPartly sunny.6 mph64%29.87 "Hg10 mi
Weather by CustomWeather, © 2015

See weather overviewHow to use our weather pages